Location: ČR
(50.0000°N, 15.0000°E)
Time: 16:10:43
(UTC+01:00)

Courier 1B - Pass Details

Date: 10 February 2026
Orbit: 962 x 1208 km, 28.3° (Epoch: 16 March)

Event Time Altitude Azimuth Distance (km) Brightness Sun altitude
Rises 02:06:15 0° 239° (WSW) 4,088 - -47.7°
Reaches altitude 10° 02:11:37 10° 209° (SSW) 3,087 - -47.2°
Maximum altitude 02:13:55 12° 191° (SSW) 2,949 - -46.9°
Drops below altitude 10° 02:16:12 10° 173° (S) 3,042 - -46.6°
Sets 02:21:22 0° 143° (SE) 3,939 - -46.0°
